Regional Weather Roundup
Issued by NWS

Home | Current Version | Previous Version | Graphics & Text | Print | Product List | Glossary On
Versions: 1 2 3 4 5 6 7 8 9 10 11 12 13 14 15 16 17 18 19 20 21 22 23 24 25 26 27 28 29 30 31 32 33 34 35 36 37 38 39 40 41 42 43 44 45 46 47 48 49 50
000
ASUS43 KTOP 010408
RWRKS

WEATHER ROUNDUP FOR KANSAS
NATIONAL WEATHER SERVICE GOODLAND KS
1000 PM CST SAT FEB 28 2015

NOTE:  "FAIR" INDICATES FEW OR NO CLOUDS BELOW 12,000 FEET WITH NO
SIGNIFICANT WEATHER AND/OR OBSTRUCTIONS TO VISIBILITY.

KSZ001>006-013>018-027>032-041>047-010500-
NORTHWEST KANSAS

CITY           SKY/WX    TMP DP  RH WIND       PRES   REMARKS
GOODLAND       CLOUDY    18  14  84 S8        30.13R
HAYS           CLOUDY    18   7  62 SE3       30.27S
HILL CITY      CLOUDY    20  14  77 SE5       30.26S
RUSSELL        CLOUDY    19  16  88 S6        30.28R
$$

KSZ061>065-074>080-084>089-010500-
SOUTHWEST KANSAS

CITY           SKY/WX    TMP DP  RH WIND       PRES   REMARKS
DODGE CITY     CLOUDY    19  15  84 SE9       30.22R
ELKHART          N/A     20  16  85 SE10        N/A  WCI   9
GARDEN CITY    CLOUDY    19  16  88 SE8       30.19R
GREAT BEND     CLOUDY    19  12  73 SE3       30.29S
LIBERAL        CLOUDY    23  16  74 E13       30.18S WCI  11
PRATT          CLOUDY    19  18  93 S5        30.29R
$$

KSZ066>073-081>083-090>101-010500-
SOUTHEAST KANSAS

CITY           SKY/WX    TMP DP  RH WIND       PRES   REMARKS
CHANUTE        CLOUDY    24  22  91 E3        30.36S
COFFEYVILLE    CLOUDY    25  24  96 SE3       30.37S
HUTCHINSON     CLOUDY    19  15  84 CALM      30.33R
MEDICINE LODGE   N/A     21  19  92 CALM      30.31R
NEWTON         CLOUDY    19  12  73 E3        30.33R
PARSONS        CLOUDY    25  23  92 CALM      30.37S
WICHITA INTL   CLOUDY    23  18  81 E5        30.33R
WICHITA JABRA  CLOUDY    21  18  88 E3        30.32R
WICHITA MCCONL CLOUDY    22  19  86 E6        30.32R
WINFIELD       CLOUDY    23  21  92 E3        30.34S
$$

KSZ007>012-019>026-033>040-048>060-102>105-010500-
NORTHEAST KANSAS

CITY           SKY/WX    TMP DP  RH WIND       PRES   REMARKS
CONCORDIA      CLOUDY    20  17  88 CALM      30.33R
EMPORIA        CLOUDY    21  19  92 E6        30.34S
LAWRENCE       LGT SNOW  22  19  89 SE3       30.39R FOG
MANHATTAN      CLOUDY    23  18  81 S3        30.36R
MARYSVILLE     MOCLDY    18  16  93 CALM      30.35R
OLATHE IND     LGT SNOW  21  19  92 SE3       30.37S FOG
OLATHE EXE     LGT SNOW  22  19  89 SE5       30.36S FOG
SALINA         MOCLDY    21  16  81 SE3       30.35R
TOPEKA BILLARD CLOUDY    23  18  81 SE3       30.39R
TOPEKA FORBES  CLOUDY    23  18  81 CALM      30.37R
$$



USA.gov is the U.S. government's official web portal to all federal, state and local government web resources and services.